Weather History for McMinnville, OR

Change the Weather History Date:

Saturday, May 4, 2013

  Actual Average Record
Temperature  
Mean Temperature 65 °F 53 °F  
Max Temperature 82 °F 65 °F 89 °F (1992)
Min Temperature 48 °F 41 °F 29 °F (1952)
Degree Days  
Heating Degree Days 0 12  
Month to date heating degree days 21 48  
Since 1 July heating degree days 4042 4446  
Cooling Degree Days 0 0  
Month to date cooling degree days 0 0  
Year to date cooling degree days 0 0  
Growing Degree Days 15 (Base 50)    
Moisture  
Dew Point 39 °F    
Average Humidity 47    
Maximum Humidity 74    
Minimum Humidity 20    
Precipitation  
Precipitation 0.00 in 0.07 in 0.92 in (1926)
Month to date precipitation 0.00 0.27  
Year to date precipitation 6.29 17.75  
Snow  
Snow 0.00 in - - ()
Month to date snowfall 0.0  
Snow Depth 0.00 in    
Sea Level Pressure  
Sea Level Pressure 30.02 in    
Wind  
Wind Speed 10 mph (NNE)    
Max Wind Speed 25 mph    
Max Gust Speed 32 mph    
Visibility 10 miles    
Events      
T = Trace of Precipitation, MM = Missing Value Source: NWS Daily Summary

Daily Weather History Graph

Daily Weather History Graph

Search for Another Location

Airport:

Trip Planner

Search our weather history database for the weather conditions in past years. The results will help you decide how hot, cold, wet, or windy it might be!

Date:

Astronomy

May. 04, 2013 Rise Set
Actual Time 5:56 AM PDT 8:22 PM PDT
Civil Twilight 5:23 AM PDT 8:55 PM PDT
Nautical Twilight 4:42 AM PDT 9:37 PM PDT
Astronomical Twilight 3:56 AM PDT 10:24 PM PDT
Moon 3:12 AM PDT (5/4) 3:13 PM PDT (5/4)
Length of Visible Light 15h 32m
Length of Day
14h 26m
Waning Crescent, 26% of the Moon is Illuminated
May 4
Waning Crescent
May 9
New
May 17
First Quarter
May 24
Full
May 31
Last Quarter

Hourly Weather History & Observations

Time (PDT) Temp. Dew Point Humidity Pressure Visibility Wind Dir Wind Speed Gust Speed Precip Events Conditions
12:53 AM 59.0 °F 37.0 °F 44% 30.13 in 10.0 mi NE 6.9 mph - N/A   Clear
1:53 AM 60.1 °F 37.9 °F 44% 30.12 in 10.0 mi North 9.2 mph - N/A   Clear
2:53 AM 57.0 °F 37.9 °F 49% 30.11 in 10.0 mi NNW 3.5 mph - N/A   Clear
3:53 AM 54.0 °F 39.0 °F 57% 30.11 in 10.0 mi Calm Calm - N/A   Clear
4:53 AM 48.0 °F 39.9 °F 74% 30.11 in 10.0 mi Calm Calm - N/A   Clear
5:53 AM 52.0 °F 41.0 °F 66% 30.12 in 10.0 mi NNW 4.6 mph - N/A   Clear
6:53 AM 50.0 °F 42.1 °F 74% 30.12 in 10.0 mi Calm Calm - N/A   Clear
7:53 AM 60.1 °F 46.9 °F 62% 30.11 in 10.0 mi Calm Calm - N/A   Clear
8:53 AM 69.1 °F 42.1 °F 38% 30.10 in 10.0 mi NNE 8.1 mph - N/A   Clear
9:53 AM 71.1 °F 41.0 °F 34% 30.09 in 10.0 mi NE 11.5 mph - N/A   Clear
10:53 AM 73.9 °F 42.1 °F 32% 30.07 in 10.0 mi NE 15.0 mph 24.2 mph N/A   Clear
11:53 AM 77.0 °F 41.0 °F 28% 30.05 in 10.0 mi ENE 19.6 mph 25.3 mph N/A   Clear
12:53 PM 79.0 °F 41.0 °F 26% 30.02 in 10.0 mi ENE 17.3 mph 26.5 mph N/A   Clear
1:53 PM 81.0 °F 41.0 °F 24% 29.99 in 10.0 mi NNE 19.6 mph 28.8 mph N/A   Clear
2:53 PM 81.0 °F 37.9 °F 21% 29.98 in 10.0 mi NE 20.7 mph 27.6 mph N/A   Clear
3:53 PM 82.0 °F 37.0 °F 20% 29.95 in 10.0 mi ENE 17.3 mph 28.8 mph N/A   Clear
4:53 PM 82.0 °F 37.0 °F 20% 29.93 in 10.0 mi NE 12.7 mph 21.9 mph N/A   Clear
5:53 PM 80.1 °F 36.0 °F 20% 29.91 in 10.0 mi NE 15.0 mph 28.8 mph N/A   Clear
6:53 PM 79.0 °F 37.0 °F 22% 29.90 in 10.0 mi NE 10.4 mph - N/A   Clear
7:53 PM 75.0 °F 36.0 °F 24% 29.90 in 10.0 mi NE 8.1 mph - N/A   Clear
8:53 PM 70.0 °F 35.1 °F 28% 29.91 in 10.0 mi NNE 4.6 mph - N/A   Clear
9:53 PM 69.1 °F 34.0 °F 27% 29.91 in 10.0 mi North 9.2 mph - N/A   Clear
10:53 PM 68.0 °F 33.1 °F 27% 29.91 in 10.0 mi NNE 9.2 mph - N/A   Clear
11:53 PM 64.0 °F 34.0 °F 33% 29.90 in 10.0 mi North 5.8 mph - N/A   Clear